Montgomery, AL

3:56 PM CDT on March 25, 2017 (GMT -0500)
Montgomery Regional

Weather History for KMGM - October, 2011

Change the Weather History Date:

Monday, October 10, 2011

  Actual Average Record
Temperature  
Mean Temperature 70 °F 68 °F  
Max Temperature 75 °F 80 °F 91 °F (1982)
Min Temperature 65 °F 56 °F 36 °F (2000)
Degree Days  
Heating Degree Days 0 2  
Month to date heating degree days 13 12  
Since 1 July heating degree days 16 16  
Cooling Degree Days 5 4  
Month to date cooling degree days 35 56  
Year to date cooling degree days 2533 2186  
Growing Degree Days 18 (Base 50)    
Moisture  
Dew Point 63 °F    
Average Humidity 83    
Maximum Humidity 93    
Minimum Humidity 73    
Precipitation  
Precipitation 0.53 in 0.10 in 1.81 in (1999)
Month to date precipitation 0.55 0.97  
Year to date precipitation 38.35 41.65  
Snow  
Snow 0.00 in 0.00 in - ()
Month to date snowfall 0.0 0.0  
Since 1 July snowfall 0.0 0.0  
Since 1 September snowfall 0.0 0.0  
Snow Depth 0.00 in    
Sea Level Pressure  
Sea Level Pressure 29.97 in    
Wind  
Wind Speed 11 mph (NNE)    
Max Wind Speed 25 mph    
Max Gust Speed 35 mph    
Visibility 7 miles    
Events Rain    
T = Trace of Precipitation, MM = Missing Value Source: NWS Daily Summary

Daily Weather History Graph

Daily Weather History Graph

Search for Another Location

Airport or City:

Trip Planner

Search our weather history database for the weather conditions in past years. The results will help you decide how hot, cold, wet, or windy it might be!

Date:

Astronomy

Oct. 10, 2011 Rise Set
Actual Time 6:45 AM CDT 6:19 PM CDT
Civil Twilight 6:20 AM CDT 6:43 PM CDT
Nautical Twilight 5:52 AM CDT 7:12 PM CDT
Astronomical Twilight 5:24 AM CDT 7:40 PM CDT
Moon 5:22 PM CDT (10/10) 5:28 AM CDT (10/10)
Length of Visible Light 12h 22m
Length of Day
11h 33m
Waxing Gibbous, 98% of the Moon is Illuminated
Oct 10
Waxing Gibbous
Oct 11
Full
Oct 19
Last Quarter
Oct 26
New
Nov 2
First Quarter

Hourly Weather History & Observations

Time (CDT) Temp. Dew Point Humidity Pressure Visibility Wind Dir Wind Speed Gust Speed Precip Events Conditions
12:53 AM 66.9 °F 60.1 °F 79% 30.06 in 10.0 mi NNE 5.8 mph - N/A   Scattered Clouds
1:53 AM 66.9 °F 60.1 °F 79% 30.04 in 10.0 mi NE 9.2 mph - N/A   Scattered Clouds
2:53 AM 66.9 °F 60.1 °F 79% 30.02 in 10.0 mi NE 8.1 mph - N/A   Clear
3:53 AM 66.9 °F 60.1 °F 79% 30.02 in 10.0 mi NNE 5.8 mph - N/A   Clear
4:53 AM 66.0 °F 60.1 °F 81% 30.02 in 10.0 mi NNE 6.9 mph - N/A   Scattered Clouds
5:53 AM 66.9 °F 60.1 °F 79% 30.03 in 10.0 mi NE 8.1 mph - N/A   Overcast
6:53 AM 68.0 °F 60.1 °F 76% 30.02 in 10.0 mi NE 9.2 mph - N/A   Overcast
7:53 AM 69.8 °F 60.8 °F 73% 30.03 in 10.0 mi NNE 6.9 mph - N/A   Mostly Cloudy
8:53 AM 68.0 °F 63.0 °F 84% 30.04 in 10.0 mi NE 8.1 mph - 0.00 in   Overcast
9:31 AM 71.6 °F 62.6 °F 73% 30.04 in 10.0 mi NE 12.7 mph - N/A   Overcast
9:43 AM 71.6 °F 62.6 °F 73% 30.04 in 10.0 mi NNE 12.7 mph - N/A   Overcast
9:53 AM 71.1 °F 62.1 °F 73% 30.04 in 10.0 mi NE 11.5 mph 17.3 mph N/A   Overcast
10:53 AM 71.1 °F 62.1 °F 73% 30.03 in 10.0 mi NNE 11.5 mph - N/A   Overcast
11:53 AM 71.1 °F 63.0 °F 75% 30.02 in 9.0 mi NE 23.0 mph 31.1 mph 0.00 in Rain Light Rain
12:10 PM 69.8 °F 62.6 °F 78% 30.02 in 2.0 mi NE 20.7 mph 29.9 mph 0.00 in Rain Light Rain
12:53 PM 68.0 °F 64.9 °F 90% 29.99 in 2.5 mi North 12.7 mph - 0.00 in Rain Light Rain
1:05 PM 68.0 °F 64.4 °F 88% 29.99 in 10.0 mi NNE 15.0 mph 19.6 mph N/A   Overcast
1:14 PM 69.8 °F 64.4 °F 83% 29.98 in 9.0 mi North 11.5 mph 21.9 mph N/A Rain Light Rain
1:33 PM 69.8 °F 64.4 °F 83% 29.97 in 10.0 mi North 10.4 mph 18.4 mph N/A   Overcast
1:53 PM 69.1 °F 63.0 °F 81% 29.95 in 10.0 mi NNE 12.7 mph 19.6 mph N/A Rain Light Rain
2:17 PM 68.0 °F 62.6 °F 83% 29.95 in 2.0 mi NE 19.6 mph 29.9 mph 0.01 in Rain Rain
2:31 PM 66.2 °F 64.4 °F 94% 29.95 in 0.8 mi NNE 21.9 mph 26.5 mph 0.17 in Rain Heavy Rain
2:36 PM 64.4 °F 64.4 °F 100% 29.94 in 0.8 mi North 16.1 mph 26.5 mph 0.35 in Rain Heavy Rain
2:45 PM 66.2 °F 64.4 °F 94% 29.95 in 0.8 mi North 15.0 mph 21.9 mph 0.41 in Rain Rain
2:49 PM 66.2 °F 64.4 °F 94% 29.95 in 2.0 mi North 16.1 mph 23.0 mph 0.42 in Rain Rain
2:53 PM 66.2 °F 64.4 °F 94% 29.94 in 2.0 mi NNE 15.0 mph 23.0 mph N/A Rain Rain
2:58 PM 66.2 °F 64.4 °F 94% 29.94 in 2.0 mi North 13.8 mph 23.0 mph 0.01 in Rain Rain
3:13 PM 66.2 °F 62.6 °F 88% 29.94 in 1.0 mi North 13.8 mph 21.9 mph 0.07 in Rain Rain
3:22 PM 66.2 °F 62.6 °F 88% 29.94 in 1.0 mi North 12.7 mph - 0.08 in Rain Light Rain
3:25 PM 66.2 °F 62.6 °F 88% 29.94 in 1.0 mi North 13.8 mph - 0.09 in Rain Light Rain
3:53 PM 66.0 °F 64.0 °F 93% 29.93 in 1.0 mi North 10.4 mph - 0.11 in Rain Light Rain
4:00 PM 66.2 °F 64.4 °F 94% 29.93 in 4.0 mi North 12.7 mph - N/A Rain Light Rain
4:09 PM 66.2 °F 64.4 °F 94% 29.93 in 7.0 mi North 10.4 mph - 0.00 in Rain Light Rain
4:53 PM 66.9 °F 63.0 °F 87% 29.91 in 10.0 mi NNE 10.4 mph - 0.00 in   Overcast
5:53 PM 66.9 °F 63.0 °F 87% 29.91 in 10.0 mi NNE 13.8 mph - N/A   Overcast
6:53 PM 66.9 °F 63.0 °F 87% 29.92 in 10.0 mi NNE 8.1 mph - N/A   Overcast
7:53 PM 66.9 °F 62.1 °F 84% 29.92 in 10.0 mi NE 16.1 mph 21.9 mph N/A   Overcast
8:53 PM 68.0 °F 62.1 °F 81% 29.92 in 10.0 mi NE 12.7 mph - N/A   Overcast
9:53 PM 68.0 °F 61.0 °F 78% 29.92 in 10.0 mi NNE 11.5 mph - N/A   Overcast
10:53 PM 68.0 °F 62.1 °F 81% 29.91 in 10.0 mi NNE 10.4 mph - N/A   Overcast
11:53 PM 68.0 °F 62.1 °F 81% 29.90 in 10.0 mi NNE 8.1 mph - N/A   Overcast